This is the latest recevied weather packets stored in our database for station/object DG3OBU-6. If no packets are shown the sender has not sent any weather packets the latest 10 day(s).
| Time | Temp. | Humidity | Pressure | Rain* | Wind** | Luminosity | Snow |
|---|---|---|---|---|---|---|---|
| 1776943203 | 13.33° C | 60% | 1026.5 hPa | 0 mm | - | - | - |
| 1776942903 | 12.78° C | 59% | 1026.5 hPa | 0 mm | - | - | - |
| 1776942603 | 13.33° C | 60% | 1026.5 hPa | 0 mm | - | - | - |
| 1776942303 | 12.78° C | 61% | 1026.5 hPa | 0 mm | - | - | - |
| 1776942003 | 12.78° C | 59% | 1026.6 hPa | 0 mm | - | - | - |
| 1776941703 | 12.78° C | 57% | 1026.6 hPa | 0 mm | - | - | - |
| 1776941403 | 12.78° C | 59% | 1026.7 hPa | 0 mm | - | - | - |
| 1776941102 | 12.22° C | 57% | 1026.6 hPa | 0 mm | - | - | - |
| 1776940802 | 12.22° C | 59% | 1026.6 hPa | 0 mm | - | - | - |
| 1776940502 | 12.22° C | 60% | 1026.6 hPa | 0 mm | - | - | - |
| 1776940203 | 11.67° C | 63% | 1026.7 hPa | 0 mm | - | - | - |
| 1776939902 | 11.67° C | 63% | 1026.7 hPa | 0 mm | - | - | - |
| 1776939602 | 11.11° C | 63% | 1026.8 hPa | 0 mm | - | - | - |
| 1776939302 | 11.11° C | 63% | 1026.8 hPa | 0 mm | - | - | - |
| 1776939002 | 11.11° C | 63% | 1026.9 hPa | 0 mm | - | - | - |
| 1776938702 | 10.56° C | 65% | 1026.9 hPa | 0 mm | - | - | - |
| 1776938402 | 10.56° C | 65% | 1027 hPa | 0 mm | - | - | - |
| 1776938103 | 10° C | 65% | 1027.1 hPa | 0 mm | - | - | - |
| 1776937803 | 10° C | 66% | 1027.1 hPa | 0 mm | - | - | - |
| 1776937503 | 10° C | 67% | 1027.1 hPa | 0 mm | - | - | - |
| 1776937203 | 10° C | 68% | 1027.1 hPa | 0 mm | - | - | - |
| 1776936903 | 9.44° C | 69% | 1027.1 hPa | 0 mm | - | - | - |
| 1776936603 | 9.44° C | 70% | 1027.2 hPa | 0 mm | - | - | - |
| 1776936303 | 8.89° C | 73% | 1027.3 hPa | 0 mm | - | - | - |
| 1776936003 | 8.89° C | 75% | 1027.3 hPa | 0 mm | - | - | - |
* Rain latest hour (hover to see other rain measurements)
** Current wind speed in m/s (hover to see current wind gust speed)